User: anonymous   Login
Location: Unspecified
(0.0000°N, 0.0000°E)
Time: 04:10:30
(UTC+02:00)
Language:

Ariane H10 - Orbit

View from above orbital plane
View from above orbital plane
View from above satellite
View from above satellite

Ground track
Ground track

The orbit data is extracted from the following two-line orbital elements,

1 19122U 88040B   16242.48258780  .00000205  00000-0  23763-2 0  9992
2 19122   7.4564 292.7553 7141721 262.3300  18.5461  2.33262970190127
Epoch (UTC): 29 August 2016 11:34:55
Eccentricity: 0.7141721
inclination: 7.4564°
perigee height: 486 km
apogee height: 34789 km
right ascension of ascending node: 292.7553°
argument of perigee: 262.3300°
revolutions per day: 2.33262970
mean anomaly at epoch: 18.5461°
orbit number at epoch: 19012

The dashed part of the orbit path shows where the satellite is in the earth's shadow,  

DLR